Location: Quincy
(39.9360°N, 91.4100°W)
Time: 00:09:47
(UTC-05:00)

ISS - Visible Passes

Search period start: 21 May 2026 00:00
Search period end: 31 May 2026 00:00
Orbit: 414 x 424 km, 51.6° (Epoch: 20 May)

Date Brightness Start Highest point End Pass type
(mag) Time Alt. Az. Time Alt. Az. Time Alt. Az.
21 May -1.2 21:03:13 10° NNW 21:05:22 16° NNE 21:07:31 10° ENE visible
21 May -3.4 22:39:21 10° NW 22:42:23 61° N 22:42:23 61° N visible
22 May -2.8 21:51:43 10° NW 21:54:54 39° NNE 21:56:23 24° E visible
22 May -0.9 23:28:50 10° W 23:29:19 13° W 23:29:19 13° W visible
23 May -2.1 21:04:08 10° NW 21:07:03 27° NNE 21:09:57 10° E visible
23 May -2.7 22:40:45 10° WNW 22:43:20 36° WSW 22:43:20 36° WSW visible
24 May -3.8 21:52:54 10° NW 21:56:13 73° SW 21:57:24 36° SE visible
25 May -3.6 21:05:09 10° NW 21:08:28 64° NE 21:11:30 12° ESE visible
25 May -1.2 22:43:10 10° W 22:44:27 13° WSW 22:44:27 13° WSW visible
26 May -2.0 21:54:34 10° WNW 21:57:17 23° SW 21:58:36 18° SSW visible
27 May -2.8 21:06:27 10° WNW 21:09:37 40° SW 21:12:45 10° SSE visible
29 May -1.2 21:08:44 10° W 21:10:29 14° SW 21:12:15 10° SSW visible
